{"data":{"norad_id":42990,"intl_designator":"2017-068D","name":"SKYSAT-C8","alt_names":[],"object_type":"PAYLOAD","status":"ACTIVE","operator":null,"country":"US","launch_date":"2017-10-31","launch_site_code":"AFWTR","launch_vehicle":null,"mission":null,"orbit_class":"UNKNOWN","rcs_meters":null,"size_class":null,"mass_kg":null,"dimensions":null,"purposes":["earth_obs"],"wikipedia_slug":null,"has_3d_model":false,"image_url":null,"decayed_at":null,"tle_current":{"epoch":"2026-05-24T22:51:13.483296Z","epoch_age_seconds":86052,"freshness":"FRESH","line1":"1 42990U 17068D   26144.95223939  .00009535  00000+0  27042-3 0  9994","line2":"2 42990  97.4489 281.2977 0001646 106.5988 253.5437 15.36449066478740","mean_motion":15.36449066,"eccentricity":0.0001646,"inclination_deg":97.4489,"raan_deg":281.2977,"arg_perigee_deg":106.5988,"mean_anomaly_deg":253.5437,"bstar":0.00027042,"rev_number":47874,"period_min":93.722599197441,"perigee_km":455.49475277027,"apogee_km":457.7447546936,"semimajor_km":6834.7567537319,"source":"CELESTRAK","updated_at":"2026-05-25T13:38:13.296587Z"}}}